CW5020 Weather Reports


Display with metric or nautical units.
time (UTC)temp
F
wind
direction
speed
MPH
gust
MPH
rain 1hr
in
rain 24hr
in
rain mn
in
humidity
%
barometer
mb
20260508222504 67 285 0.0 3.0 0.00 0.00 0.00 46 1005.9
20260508222011 66 229 0.0 3.0 0.00 0.00 0.00 47 1005.9
20260508221505 65 229 0.0 3.0 0.00 0.00 0.00 48 1005.9
20260508221006 65 228 0.0 2.0 0.00 0.00 0.00 47 1006.0
20260508220505 65 228 1.0 4.0 0.00 0.00 0.00 49 1006.0
20260508220009 65 229 1.0 4.0 0.00 0.00 0.00 49 1006.0
20260508215005 65 230 1.0 5.0 0.00 0.02 0.00 47 1006.2
20260508214505 65 239 1.0 6.0 0.00 0.02 0.00 47 1006.3
20260508214005 65 248 1.0 6.0 0.00 0.02 0.00 46 1006.2
20260508213504 65 213 1.0 7.0 0.00 0.02 0.00 46 1006.2
20260508212504 65 273 1.0 4.0 0.00 0.02 0.00 46 1006.3
20260508212007 65 275 0.0 4.0 0.00 0.02 0.00 46 1006.2
20260508211005 65 227 0.0 1.0 0.00 0.02 0.00 47 1006.3
20260508210506 65 227 0.0 4.0 0.00 0.02 0.00 46 1006.3
20260508210008 66 227 0.0 4.0 0.00 0.02 0.00 43 1006.3
20260508205505 67 275 1.0 3.0 0.00 0.02 0.00 45 1006.4
20260508205005 67 269 1.0 3.0 0.00 0.02 0.00 43 1006.3
20260508204504 66 267 1.0 3.0 0.00 0.02 0.00 42 1006.3
20260508203504 65 229 0.0 4.0 0.00 0.02 0.00 47 1006.5
20260508202005 66 257 1.0 3.0 0.00 0.02 0.00 45 1006.7
20260508201506 66 257 1.0 9.0 0.00 0.02 0.00 42 1006.7
20260508201007 67 251 2.0 9.0 0.00 0.02 0.00 40 1006.8
20260508200506 69 234 1.0 7.0 0.00 0.02 0.00 39 1006.9
20260508200008 69 252 1.0 7.0 0.00 0.02 0.00 45 1006.9
20260508195505 69 240 1.0 3.0 0.00 0.02 0.00 44 1007.0
20260508195007 68 225 0.0 3.0 0.00 0.02 0.00 44 1007.2
20260508194505 68 221 1.0 3.0 0.00 0.02 0.00 43 1007.1
20260508194005 68 223 1.0 4.0 0.00 0.02 0.00 48 1007.2
20260508193504 67 264 1.0 4.0 0.00 0.02 0.00 45 1007.3
20260508193006 68 230 0.0 4.0 0.00 0.02 0.00 43 1007.4
20260508192007 67 227 2.0 7.0 0.00 0.02 0.00 48 1007.6
20260508190504 66 229 1.0 6.0 0.00 0.02 0.00 48 1007.7
20260508185505 66 275 2.0 5.0 0.00 0.02 0.00 45 1007.8
20260508184505 66 294 2.0 7.0 0.00 0.02 0.00 45 1007.8
20260508184006 66 265 1.0 5.0 0.00 0.02 0.00 47 1008.0
20260508183505 65 223 0.0 5.0 0.00 0.02 0.00 46 1008.0
20260508183006 65 254 0.0 1.0 0.00 0.02 0.00 49 1008.0
20260508182506 65 265 1.0 3.0 0.00 0.02 0.00 50 1008.0
20260508182005 65 264 1.0 3.0 0.00 0.02 0.00 51 1008.2
20260508181505 65 264 0.0 1.0 0.00 0.02 0.00 51 1008.2
20260508181007 65 264 0.0 1.0 0.00 0.02 0.00 53 1008.1
20260508180505 65 264 0.0 2.0 0.00 0.02 0.00 55 1008.2
20260508180006 64 264 0.0 2.0 0.00 0.02 0.00 54 1008.2
20260508175505 64 262 0.0 2.0 0.00 0.02 0.00 54 1008.4
20260508175007 64 271 0.0 2.0 0.00 0.02 0.00 56 1008.4
20260508174007 63 271 0.0 2.0 0.00 0.02 0.00 57 1008.7
20260508173504 63 271 0.0 3.0 0.00 0.02 0.00 56 1008.6
20260508173004 63 277 0.0 3.0 0.00 0.02 0.00 57 1008.7
20260508172505 62 277 0.0 2.0 0.00 0.02 0.00 56 1008.8
20260508172004 62 277 1.0 4.0 0.00 0.02 0.00 57 1008.9
20260508171005 62 231 1.0 4.0 0.00 0.02 0.00 58 1009.2
20260508170006 62 227 2.0 8.0 0.00 0.02 0.00 59 1009.3
20260508165505 62 225 1.0 6.0 0.00 0.02 0.00 56 1009.5
20260508165007 62 229 1.0 8.0 0.00 0.02 0.00 59 1009.6
20260508164504 62 244 0.0 8.0 0.00 0.02 0.00 59 1009.6
20260508164006 62 227 0.0 3.0 0.00 0.02 0.00 60 1009.6
20260508163504 62 227 0.0 3.0 0.00 0.02 0.00 57 1009.7
20260508162505 62 227 1.0 3.0 0.00 0.02 0.00 56 1009.9
20260508162006 62 234 1.0 3.0 0.00 0.02 0.00 56 1010.1
20260508161504 61 234 0.0 4.0 0.00 0.02 0.00 52 1010.2
20260508161006 62 211 0.0 4.0 0.00 0.02 0.00 51 1010.1
20260508160008 61 85 0.0 3.0 0.00 0.02 0.00 44 1010.1
20260508155505 61 217 0.0 3.0 0.00 0.02 0.00 47 1010.1
20260508155010 61 215 0.0 3.0 0.00 0.02 0.00 51 1010.2
20260508154505 61 169 1.0 3.0 0.00 0.02 0.00 51 1010.2
20260508153506 61 171 0.0 2.0 0.00 0.02 0.00 52 1010.4
20260508153006 60 165 0.0 2.0 0.00 0.02 0.00 57 1010.4
20260508152506 60 165 0.0 3.0 0.00 0.02 0.00 55 1010.4
20260508152005 60 165 0.0 3.0 0.00 0.02 0.00 52 1010.5
20260508151504 59 153 0.0 3.0 0.00 0.02 0.00 55 1010.5
20260508151005 59 134 0.0 1.0 0.00 0.02 0.00 55 1010.5
20260508150505 59 128 0.0 2.0 0.00 0.02 0.00 55 1010.6
20260508150007 59 127 0.0 2.0 0.00 0.02 0.00 55 1010.6
20260508145505 58 93 0.0 1.0 0.00 0.02 0.00 58 1010.6
20260508145006 57 93 0.0 1.0 0.00 0.02 0.00 62 1010.7
20260508144007 56 96 0.0 1.0 0.00 0.02 0.00 67 1010.7
20260508143006 55 95 0.0 0.0 0.00 0.02 0.00 70 1010.7
20260508142505 55 95 0.0 2.0 0.00 0.02 0.00 69 1010.8
20260508142005 54 95 0.0 2.0 0.00 0.02 0.00 71 1010.9
20260508141507 54 81 0.0 2.0 0.00 0.02 0.00 70 1010.9
20260508141005 54 80 0.0 0.0 0.00 0.02 0.00 71 1010.9
20260508140505 54 80 0.0 1.0 0.00 0.02 0.00 73 1010.9
20260508140009 53 80 0.0 1.0 0.00 0.02 0.00 73 1010.8
20260508135505 53 80 0.0 1.0 0.00 0.02 0.00 74 1010.7
20260508135005 52 80 0.0 0.0 0.00 0.02 0.00 77 1010.8
20260508134505 51 80 0.0 1.0 0.00 0.02 0.00 78 1010.7
20260508134005 51 80 0.0 1.0 0.00 0.02 0.00 80 1010.7
20260508133504 50 80 0.0 0.0 0.00 0.02 0.00 81 1010.7
20260508133007 49 80 0.0 0.0 0.00 0.02 0.00 82 1010.6
20260508132501 49 80 0.0 0.0 0.00 0.02 0.00 83 1010.6
20260508132004 48 80 0.0 0.0 0.00 0.02 0.00 83 1010.7
20260508131505 48 80 0.0 0.0 0.00 0.02 0.00 85 1010.7
20260508131005 47 80 0.0 0.0 0.00 0.02 0.00 86 1010.7
20260508130504 47 80 0.0 1.0 0.00 0.02 0.00 85 1010.8
20260508130008 47 80 0.0 1.0 0.00 0.02 0.00 86 1010.8
20260508125505 46 80 0.0 1.0 0.00 0.02 0.00 86 1010.9
20260508125006 46 80 0.0 1.0 0.00 0.02 0.00 87 1010.6
20260508124505 45 218 0.0 0.0 0.00 0.02 0.00 88 1010.8
20260508122505 0 218 0.0 0.0 0.00 0.02 0.00 1010.9
20260508121505 0 218 0.0 2.0 0.00 0.02 0.00 1010.7
20260508121007 0 218 0.0 0.0 0.00 0.02 0.00 1010.7
20260508120504 0 218 0.0 0.0 0.00 0.02 0.00 1010.7
20260508120006 43 218 0.0 0.0 0.00 0.02 0.00 92 1010.9
20260508115506 43 218 0.0 0.0 0.00 0.02 0.00 92 1011.0
20260508115007 42 218 0.0 0.0 0.00 0.02 0.00 92 1011.0
20260508114505 42 218 0.0 0.0 0.00 0.02 0.00 92 1010.9
20260508113507 42 218 0.0 0.0 0.00 0.02 0.00 92 1010.9
20260508113009 41 218 0.0 0.0 0.00 0.02 0.00 92 1010.6
20260508112005 41 218 0.0 0.0 0.00 0.02 0.00 92 1010.6
20260508111505 41 218 0.0 0.0 0.00 0.02 0.00 92 1010.6
20260508110506 40 218 0.0 0.0 0.00 0.02 0.00 92 1010.4
20260508110007 40 218 0.0 0.0 0.00 0.02 0.00 91 1010.5
20260508105505 40 218 0.0 0.0 0.00 0.02 0.00 91 1010.5
20260508105005 40 218 0.0 0.0 0.00 0.02 0.00 91 1010.5
20260508104505 39 218 0.0 0.0 0.00 0.02 0.00 91 1010.6
20260508104007 39 218 0.0 0.0 0.00 0.02 0.00 91 1010.6
20260508103505 39 218 0.0 0.0 0.00 0.02 0.00 91 1010.5
20260508103007 39 218 0.0 0.0 0.00 0.02 0.00 91 1010.4
20260508102007 39 218 0.0 0.0 0.00 0.02 0.00 90 1010.5
20260508101505 39 218 0.0 0.0 0.00 0.02 0.00 90 1010.7
20260508100009 39 218 0.0 0.0 0.00 0.02 0.00 90 1010.4
20260508095505 39 218 0.0 0.0 0.00 0.02 0.00 89 1010.5
20260508095005 39 218 0.0 0.0 0.00 0.02 0.00 89 1010.4
20260508094506 39 218 0.0 0.0 0.00 0.02 0.00 89 1010.4
20260508094007 39 218 0.0 0.0 0.00 0.02 0.00 89 1010.5
20260508092505 39 218 0.0 0.0 0.00 0.02 0.00 89 1010.7
20260508092005 39 218 0.0 0.0 0.00 0.02 0.00 88 1010.6
20260508091005 40 218 0.0 0.0 0.00 0.02 0.00 88 1010.7
20260508090505 40 218 0.0 0.0 0.00 0.02 0.00 88 1010.7
20260508090010 40 218 0.0 0.0 0.00 0.02 0.00 88 1010.7
20260508085008 40 218 0.0 0.0 0.00 0.02 0.00 88 1010.8
20260508084506 41 218 0.0 0.0 0.00 0.02 0.00 88 1010.9
20260508084005 41 218 0.0 0.0 0.00 0.02 0.00 88 1010.9
20260508083507 41 218 0.0 0.0 0.00 0.02 0.00 88 1011.0
20260508083005 41 218 0.0 0.0 0.00 0.02 0.00 88 1010.9
20260508082504 41 218 0.0 0.0 0.00 0.02 0.00 88 1011.0
20260508082005 41 218 0.0 0.0 0.00 0.02 0.00 88 1011.0
20260508081505 41 218 0.0 0.0 0.00 0.02 0.00 88 1011.1
20260508081005 41 218 0.0 1.0 0.00 0.02 0.00 88 1011.0
20260508080504 41 218 0.0 2.0 0.00 0.02 0.00 87 1011.1
20260508080008 41 218 0.0 2.0 0.00 0.02 0.00 87 1011.1
20260508075506 41 218 0.0 0.0 0.00 0.02 0.00 87 1011.1
20260508075005 41 218 0.0 0.0 0.00 0.02 0.00 86 1011.2
20260508074505 41 218 0.0 0.0 0.00 0.02 0.00 86 1011.3
20260508074008 41 218 0.0 0.0 0.00 0.02 0.00 86 1011.3
20260508073505 42 218 0.0 0.0 0.00 0.02 0.00 85 1011.3
20260508073009 42 218 0.0 0.0 0.00 0.02 0.00 85 1011.3
20260508072506 42 218 0.0 0.0 0.00 0.02 0.00 85 1011.4
20260508072011 42 218 0.0 0.0 0.00 0.02 0.00 85 1011.4
20260508071508 42 218 0.0 0.0 0.00 0.02 0.00 85 1011.3
20260508071005 42 218 0.0 0.0 0.00 0.02 0.00 84 1011.3
20260508070506 43 218 0.0 0.0 0.00 0.02 0.00 84 1011.4
20260508070007 43 218 0.0 0.0 0.00 0.02 0.00 84 1011.3
20260508065004 43 218 0.0 0.0 0.00 0.02 0.00 84 1011.2
20260508064506 43 218 0.0 0.0 0.00 0.02 0.00 83 1011.2
20260508064006 43 218 0.0 0.0 0.00 0.02 0.00 82 1011.3
20260508063506 44 218 0.0 0.0 0.00 0.02 0.00 82 1011.3
20260508063005 44 218 0.0 0.0 0.00 0.02 0.00 82 1011.2
20260508062506 44 218 0.0 0.0 0.00 0.02 0.00 81 1011.2
20260508062008 44 218 0.0 0.0 0.00 0.02 0.00 81 1011.1
20260508055508 45 218 0.0 0.0 0.00 0.02 0.00 80 1011.2
20260508054507 45 218 0.0 0.0 0.00 0.02 0.00 79 1011.2
20260508054006 45 218 0.0 0.0 0.00 0.02 0.00 79 1011.1
20260508053506 45 218 0.0 0.0 0.00 0.02 0.00 78 1010.9
20260508053009 46 218 0.0 0.0 0.00 0.02 0.00 78 1011.0
20260508052505 46 218 0.0 0.0 0.00 0.02 0.00 78 1010.9
20260508052010 46 218 0.0 0.0 0.00 0.02 0.00 77 1010.9
20260508051505 46 218 0.0 0.0 0.00 0.02 0.00 77 1011.0
20260508051007 46 218 0.0 0.0 0.00 0.02 0.00 77 1010.9
20260508050511 46 218 0.0 0.0 0.00 0.02 0.00 76 1010.9
20260508045505 47 218 0.0 0.0 0.00 0.02 0.02 75 1011.0
20260508044507 47 218 0.0 0.0 0.00 0.02 0.02 75 1011.0
20260508044006 47 218 0.0 0.0 0.00 0.02 0.02 75 1011.0
20260508043507 47 218 0.0 0.0 0.00 0.02 0.02 75 1010.9
20260508043006 47 218 0.0 0.0 0.00 0.02 0.02 75 1010.9
20260508042506 47 218 0.0 1.0 0.00 0.02 0.02 75 1010.9
20260508041506 47 218 0.0 2.0 0.00 0.02 0.02 75 1010.7
20260508041007 47 218 0.0 2.0 0.00 0.02 0.02 76 1010.8
20260508040007 46 218 0.0 2.0 0.00 0.02 0.02 77 1010.6
20260508035506 46 218 0.0 2.0 0.00 0.02 0.02 78 1010.5
20260508035007 46 218 0.0 0.0 0.00 0.02 0.02 78 1010.5
20260508032505 46 218 0.0 0.0 0.00 0.02 0.02 78 1010.2
20260508031505 46 218 0.0 0.0 0.00 0.02 0.02 78 1010.3
20260508031007 46 218 0.0 0.0 0.00 0.02 0.02 78 1010.3
20260508030008 47 218 0.0 0.0 0.00 0.02 0.02 77 1010.3
20260508025506 47 218 0.0 0.0 0.00 0.02 0.02 77 1010.2
20260508025005 47 218 0.0 0.0 0.00 0.02 0.02 76 1010.2
20260508024505 47 218 0.0 0.0 0.00 0.02 0.02 76 1010.1
20260508024006 48 218 0.0 0.0 0.00 0.02 0.02 75 1010.0
20260508023505 48 218 0.0 0.0 0.00 0.02 0.02 74 1010.0
20260508023005 48 218 0.0 0.0 0.00 0.02 0.02 74 1010.1
20260508022507 48 218 0.0 0.0 0.00 0.02 0.02 73 1010.0
20260508022008 49 218 0.0 0.0 0.00 0.02 0.02 74 1010.0
20260508021505 49 218 0.0 0.0 0.00 0.02 0.02 73 1009.9
20260508021005 49 218 0.0 0.0 0.00 0.02 0.02 73 1009.9
20260508020009 50 218 0.0 0.0 0.00 0.02 0.02 72 1009.7
20260508015507 50 218 0.0 0.0 0.00 0.02 0.02 72 1009.6
20260508015007 50 218 0.0 0.0 0.00 0.02 0.02 71 1009.6
20260508014506 50 218 0.0 0.0 0.00 0.02 0.02 71 1009.5
20260508014007 50 218 0.0 0.0 0.00 0.02 0.02 70 1009.3
20260508013505 51 218 0.0 0.0 0.00 0.02 0.02 70 1009.3
20260508013008 51 218 0.0 0.0 0.00 0.02 0.02 69 1009.3
20260508012506 51 218 0.0 0.0 0.00 0.02 0.02 68 1009.3
20260508012005 52 218 0.0 0.0 0.00 0.02 0.02 67 1009.2
20260508011506 52 218 0.0 0.0 0.00 0.02 0.02 65 1009.2
20260508010506 53 218 0.0 0.0 0.00 0.02 0.02 61 1009.2
20260508010007 53 218 0.0 0.0 0.00 0.02 0.02 61 1009.2
20260508005505 54 218 0.0 0.0 0.00 0.02 0.02 61 1009.1
20260508005005 54 218 0.0 0.0 0.00 0.02 0.02 59 1009.2
20260508004505 54 218 0.0 0.0 0.00 0.02 0.02 59 1009.1
20260508004008 55 218 0.0 0.0 0.00 0.02 0.02 59 1009.1
20260508003508 55 218 0.0 0.0 0.00 0.02 0.02 58 1009.1
20260508003007 55 218 0.0 2.0 0.00 0.02 0.02 57 1009.1
20260508002506 56 218 0.0 2.0 0.00 0.02 0.02 57 1009.1
20260508002006 56 216 0.0 2.0 0.00 0.02 0.02 57 1009.1
20260508001505 56 216 0.0 2.0 0.00 0.02 0.02 57 1009.1
20260508000505 56 216 0.0 3.0 0.00 0.02 0.02 59 1009.1
20260508000007 56 219 1.0 3.0 0.00 0.02 0.02 60 1009.1
20260507235506 56 219 1.0 3.0 0.00 0.02 0.02 60 1009.0
20260507235005 56 219 1.0 3.0 0.00 0.02 0.02 59 1009.2
20260507234505 56 219 1.0 3.0 0.00 0.02 0.02 60 1009.0
20260507234005 56 219 1.0 4.0 0.00 0.02 0.02 59 1009.2
20260507233507 56 215 1.0 4.0 0.00 0.02 0.02 61 1009.2
20260507233006 56 215 1.0 4.0 0.00 0.02 0.02 60 1009.3
20260507232507 56 242 1.0 3.0 0.00 0.02 0.02 61 1009.1
20260507231506 56 224 1.0 4.0 0.00 0.02 0.02 59 1009.4
20260507231006 56 232 1.0 4.0 0.00 0.02 0.02 59 1009.4
20260507230505 56 261 1.0 3.0 0.00 0.02 0.02 60 1009.5
20260507230011 56 270 1.0 4.0 0.00 0.02 0.02 61 1009.3
20260507225504 57 236 0.0 4.0 0.01 0.02 0.02 59 1009.4
20260507225007 56 267 0.0 1.0 0.01 0.02 0.02 63 1009.5
20260507224505 55 267 0.0 1.0 0.01 0.02 0.02 65 1009.6
20260507224006 55 267 0.0 1.0 0.02 0.02 0.02 67 1009.7
20260507223505 56 267 0.0 2.0 0.02 0.02 0.02 65 1009.7
20260507223006 57 267 0.0 2.0 0.02 0.02 0.02 63 1009.8